SCOUT D-1 R/B

Satellite information

Favourite Embed

Satellite Type and Status

ROCKET BODYIN ORBIT

Key statistics

Satellite SCOUT D-1 R/B at a glance.

Uptime

18856

Days in orbit

Revolutions

≈ 14.4

Per day

Orbit

SSO

Sun Synchronous Orbit

Inclination

97.8

Latest

Satellite identification and parameters

Extended collection of information and parameters for SCOUT D-1 R/B.

Object identification

Identified? True

Debris? False

Object name: SCOUT D-1 R/B

International designator: 1974-013B

Object number (NORAD): 7228

Object ID (CCSDS): 7228

Country: UNITED STATES OF AMERICA (US)

Current information (Y/N): Y

RCS size: MEDIUM

Orbital parameters

Period: 99.688 minutes

Inclination: 97.8 deg

SMA: 7121.791 km

Apoapsis: 819.272 km

Periapsis: 668.04 km

RAAN: 145.965 deg

Eccentricy: 0.01061755

Argument of periapsis: 79.2803 deg

Mean anomaly: 282.0323 deg

Mean motion: 14.44504499 rev/day

Mean motion (dot): 0.00000698 rev/day2

B* drag term: 0.00019983464 1/REarth

Two-line elements (TLE)

Creation date: Oct. 23, 2025, 2:46 a.m.

Reference frame: TEME

Reference center: EARTH

Epoch: Oct. 22, 2025, 9:24 p.m. UTC

TLE line 0: 0 SCOUT D-1 R/B

TLE line 1: 1 07228U 74013B 25295.89172505 .00000698 00000-0 19983-3 0 9990

TLE line 2: 2 07228 97.8000 145.9650 0106175 79.2803 282.0323 14.44504499683577

Live tracking on map

Real-time ground track for satellite SCOUT D-1 R/B.

In-orbit conjunctions

A list of the most updated potential collisions computed for object SCOUT D-1 R/B.

Target Orbit TCA Probability of collision Miss distance Type
FENGYUN 1C DEB SSO 2025-05-29 05:25:54 0.0001141424 262.0 (m) DEBRIS
FENGYUN 1C DEB SSO 2025-02-12 18:59:42 0.0002491253 364.0 (m) DEBRIS
DMSP 5D-3 F17 DEB SSO 2025-01-23 00:27:53 0.0001155976 641.0 (m) DEBRIS
CZ-6A DEB LEO 2024-12-23 04:33:22 0.0001654869 690.0 (m) DEBRIS

Associated space launch

British experimental satellite designed to test a three-axis gyro system for attitude control.

SCOUT D-1 R/B was lifted into orbit during the mission ‘Scout D-1 | Miranda’, on board a Scout D-1 space rocket.

The launch took place on March 9, 1974, 2:22 a.m. from Space Launch Complex 5.

For more information about the launch, click the button.

Launch to space Scout D-1 | Miranda
Scout D-1 | Miranda

Agency: N/A

Status: Launch Successful

Launch date: March 9, 1974, 2:22 a.m. UTC

Rocket: Scout D-1

Launch pad: Space Launch Complex 5

Location: Vandenberg SFB, CA, USA

...

Latest news about this satellite

There are no fresh news available about this satellite. Check back as we update our databases every day.


Newsletter sign-up

Weekly statistics, charts and insights to help you stay on top of the space industry.